Flag for U.S.A. Weather past 2 weeks in Beaumont, Texas, U.S.A.

Now
74 °F

Clear.


Feels Like: 71 °F
Forecast: 74 / 91 °F
Wind: 5 mph from Northwest

Location: Jefferson County Airport

Current Time: Jul 24, 2014 at 6:04:29 AM

Latest Report: Jul 24, 2014 at 4:53 AM


Visibility: 8 mi

Pressure: 29.96 "Hg

Humidity: 94%

Dew point: 72 °F

Location of BeaumontLocation

Historic Weather in Beaumont — Graph

°F

Beaumont temperature yesterday

Maximum temperature yesterday: 93 °F (at 1:53 PM)
Minimum temperature yesterday: 74 °F (at 11:01 PM)
Average temperature yesterday: 85 °F

Past Weeks' High & Low Weather Summary

 TemperatureHumidityPressure
High94 °F (Jul 21, 2:53 PM)100% (Jul 13, 5:01 AM)30.16 "Hg (Jul 13, 5:01 AM)
Low71 °F (Jul 14, 12:53 AM)46% (Jul 23, 3:53 PM)29.82 "Hg (Jul 18, 5:53 AM)
Average81 °F80%30.00 "Hg
* Reported Jul 9 7:53 AM — Jul 24 4:53 AM, Beaumont, Weather by CustomWeather, © 2014

Note: Actual official high and low records may vary slightly from our data, if they occured in-between our weather recording intervals... More about our weather records

Advertising

Beaumont weather history for previous 24 hours

 ConditionsComfort  
Time TempWeatherWind HumidityBarometerVisibility
4:53 AM
Jul 24
74 °FClear.5 mph94%29.96 "Hg8 mi
3:53 AM73 °FClear.No wind94%29.94 "Hg8 mi
2:53 AM74 °FClear.5 mph91%29.95 "Hg9 mi
1:53 AM76 °FClear.3 mph85%29.98 "Hg10 mi
12:53 AM76 °FPassing clouds.6 mph91%29.97 "Hg10 mi
11:53 PM
Jul 23
74 °FPassing clouds.6 mph94%30.02 "Hg10 mi
11:01 PM74 °FStrong thunderstorms. Fog.9 mph91%30.03 "Hg3 mi
10:53 PM75 °FStrong thunderstorms. Fog.13 mph90%30.05 "Hg2 mi
10:00 PM81 °FThundershowers. Passing clouds.3 mph85%29.99 "Hg10 mi
8:53 PM83 °FBroken clouds.6 mph77%29.98 "Hg10 mi
7:53 PM84 °FPassing clouds.3 mph77%29.96 "Hg10 mi
6:53 PM88 °FScattered clouds.5 mph63%29.95 "Hg10 mi
5:53 PM90 °FPassing clouds.7 mph59%29.93 "Hg10 mi
4:53 PM90 °FScattered clouds.6 mph56%29.94 "Hg10 mi
3:53 PM93 °FScattered clouds.5 mph46%29.98 "Hg10 mi
2:53 PM93 °FScattered clouds.6 mph47%30.01 "Hg10 mi
1:53 PM93 °FScattered clouds.6 mph49%30.02 "Hg10 mi
12:53 PM92 °FScattered clouds.8 mph51%30.04 "Hg10 mi
11:53 AM91 °FSunny.7 mph50%30.04 "Hg10 mi
10:53 AM88 °FSunny.7 mph59%30.04 "Hg10 mi
9:53 AM87 °FSunny.8 mph61%30.05 "Hg10 mi
8:53 AM83 °FSunny.5 mph72%30.05 "Hg9 mi
7:53 AM80 °FSunny.6 mph79%30.04 "Hg8 mi
Weather by CustomWeather, © 2014

See weather overviewHow to use our weather pages